[[{"header":{"parameterUnit":"m.s-1","parameterCategory":1,"la1":30.2991,"la2":30.254,"lo1":-89.0895,"lo2":-89.0444,"dy":0.0017,"dx":0.0017,"nx":28,"ny":28,"refTime":"2023-09-11T03:00:00:Z","depth":0,"parameterNumber":2,"parameterNumberName":"U-component_of_WINDS"},"data":[0,0,0,0,0,0,0,0,0,0,0,0,0,0,0,0,0,0,0,0,0,0,0,0,0,0,0,0,0,0,0,0,0,0,0,0,0,0,0,0,0,0,0,0,0,0,0,0,0,0,0,0,0,0,0,0,0,0,0.5052,0.5053,0,0.5143,0.5144,0.5145,0.5176,0.5176,0.5175,0.5175,0.5267,0.527,0.5273,0,0,0,0,0,0,0,0,0,0,0,0,0,0.4905,0.4908,0.5052,0.5053,0.5055,0.5143,0.5144,0.5145,0.5176,0.5176,0.5175,0.5175,0.5266,0.527,0.5273,0,0,0,0,0,0,0,0,0,0,0,0,0,0.498,0.4909,0.5052,0.5081,0.5084,0.5142,0.5144,0.5145,0.5176,0.5176,0.5175,0.5175,0.5265,0.5269,0.5273,0.531,0,0,0.5286,0.5288,0,0,0,0,0,0,0,0,0.4975,0.4985,0.5075,0.5079,0.5083,0.5148,0.5126,0.5201,0.5176,0.5141,0.5175,0.5174,0.5228,0.5235,0.5253,0.5314,0.5318,0.5287,0.5289,0.5291,0.5292,0,0,0,0,0,0,0,0.497,0.4981,0.5088,0.5077,0.5081,0.5089,0.5099,0.514,0.5186,0.5144,0.5147,0.5157,0.523,0.5249,0.5256,0.5319,0.5287,0.529,0.5293,0.5294,0.5413,0.5414,0,0,0,0,0,0,0.496,0.4977,0.5085,0.5091,0.5027,0.5092,0.5103,0.5127,0.5186,0.5194,0.5157,0.5158,0.5242,0.5251,0.5259,0.5305,0.5291,0.5295,0.5297,0.5413,0.5414,0.5414,0,0,0,0,0,0,0.4957,0.497,0.5082,0.5035,0.5049,0.5095,0.5122,0.5129,0.5149,0.5196,0.5204,0.5169,0.5242,0.5253,0.5297,0.5308,0.5297,0.5301,0.5412,0.5413,0.5414,0.5397,0,0,0,0,0,0,0.4953,0.4968,0.4983,0.5035,0.5052,0.5118,0.5123,0.5132,0.5156,0.5158,0.5209,0.5217,0.5243,0.529,0.5301,0.5314,0.5304,0.5411,0.5413,0.5414,0.5396,0.5397,0.5397,0,0,0,0,0,0.4947,0.4975,0.4984,0.4997,0.5071,0.5119,0.5128,0.5158,0.5157,0.5171,0.5202,0.5215,0.5305,0.5294,0.5307,0.5321,0.5411,0.5412,0.5414,0.5396,0.5397,0.5397,0,0,0,0,0,0,0.4924,0.4982,0.4993,0.5038,0.5073,0.5124,0.5144,0.5158,0.5194,0.5194,0.5229,0.524,0.5281,0.5305,0.5292,0.5359,0.5359,0.5363,0.5341,0.5342,0.5343,0.5336,0.5307,0,0,0,0,0,0.4923,0.4958,0.5007,0.5042,0.5059,0.5098,0.512,0.5139,0.5177,0.5192,0.5226,0.5262,0.5298,0.5322,0.5358,0.54,0.5411,0.5416,0.5416,0.5416,0.5419,0.5442,0.5445,0.5419,0.5419,0.5419,0,0,0.4924,0.496,0.4979,0.5038,0.5067,0.5101,0.511,0.5146,0.5172,0.5198,0.5241,0.5266,0.5309,0.5352,0.5372,0.5373,0.5429,0.5418,0.5418,0.5421,0.5444,0.5446,0.5449,0.542,0.542,0.542,0,0,0.4941,0.4972,0.5004,0.5034,0.5079,0.5104,0.5112,0.5161,0.5178,0.5222,0.5242,0.5273,0.5335,0.5364,0.5387,0.5414,0.5428,0.5425,0.5428,0.545,0.5452,0.5454,0.5463,0.5466,0.5428,0.5428,0.5428,0,0.4936,0.4988,0.5019,0.5054,0.5078,0.5103,0.5135,0.5162,0.5216,0.5233,0.5233,0.5311,0.5342,0.5391,0.5397,0.5416,0.5425,0.542,0.5449,0.5451,0.5454,0.5463,0.5466,0.5427,0.5428,0.5428,0.5428,0,0.4979,0.5015,0.5035,0.5087,0.5114,0.5147,0.5182,0.5205,0.5222,0.5247,0.5291,0.5328,0.5372,0.5385,0.5402,0.5437,0.5436,0.5442,0.5443,0.5455,0.5464,0.5468,0.5426,0.5427,0.5427,0.5427,0,0,0.4985,0.5052,0.5059,0.5082,0.5133,0.5161,0.5195,0.5237,0.5256,0.5293,0.5321,0.5373,0.5379,0.5405,0.5425,0.5444,0.5463,0.5449,0.545,0.5449,0.5502,0.5497,0.55,0.5472,0.5473,0.5473,0.5498,0,0.5008,0.507,0.5098,0.5148,0.5181,0.5204,0.5234,0.5267,0.5292,0.5323,0.535,0.5385,0.5391,0.5407,0.5427,0.5456,0.5474,0.5455,0.5499,0.55,0.5487,0.5505,0.55,0.5522,0.5502,0.5503,0.5503,0,0.5045,0.5081,0.5133,0.5179,0.5194,0.522,0.526,0.529,0.5329,0.5345,0.5373,0.5393,0.5428,0.5426,0.5476,0.5462,0.5482,0.5498,0.55,0.5505,0.5502,0.551,0.5529,0.5532,0.5509,0.5509,0.5508,0,0.5042,0.5104,0.5143,0.5162,0.5217,0.5235,0.5258,0.5296,0.532,0.5355,0.537,0.541,0.5431,0.546,0.5489,0.5485,0.5536,0.5536,0.555,0.5549,0.5559,0.5558,0.5581,0.5572,0.5572,0.5572,0.5572,0,0.5066,0.5097,0.5143,0.5167,0.5202,0.5233,0.5267,0.5292,0.5326,0.5354,0.5377,0.5404,0.5441,0.5471,0.5494,0.5531,0.5541,0.5555,0.556,0.5552,0.5551,0.5566,0.5565,0.5573,0.5573,0.5573,0.5572,0,0.507,0.5102,0.5146,0.5194,0.5206,0.523,0.5271,0.5295,0.532,0.5356,0.5366,0.5405,0.5443,0.5475,0.5524,0.5539,0.5577,0.5584,0.5564,0.5567,0.5579,0.5577,0.5612,0.5618,0.5605,0.5605,0.5605,0,0.5082,0.5107,0.5157,0.5178,0.5201,0.5235,0.5259,0.529,0.5314,0.5359,0.5377,0.5416,0.5449,0.5508,0.5541,0.5578,0.5586,0.5596,0.5592,0.5583,0.5586,0.5584,0.5586,0.5596,0.5596,0.5596,0.5596,0,0.5101,0.5116,0.515,0.5189,0.5217,0.5249,0.5282,0.5297,0.5335,0.5361,0.5399,0.5425,0.5475,0.5513,0.5554,0.5578,0.5593,0.5597,0.5602,0.5594,0.5581,0.5588,0.5564,0.5596,0.5596,0.5596,0.5596,0.5596,0.511,0.5132,0.5171,0.5207,0.5235,0.5265,0.529,0.5318,0.535,0.5394,0.541,0.5449,0.5486,0.5543,0.5566,0.5597,0.5599,0.5607,0.5609,0.561,0.5608,0.5576,0.5605,0.5605,0.5605,0.5605,0.5605,0,0.5129,0.5155,0.5189,0.5234,0.5262,0.5274,0.5311,0.5334,0.5368,0.5401,0.5433,0.5476,0.5513,0.5549,0.5587,0.5605,0.5613,0.5614,0.5613,0.5618,0.5605,0.5596,0.5607,0.5607,0.5607,0.5607,0.5607,0.5607,0.5143,0.5181,0.52,0.5252,0.5277,0.5316,0.5336,0.5363,0.539,0.5438,0.5468,0.5491,0.5525,0.5566,0.56,0.561,0.5623,0.5622,0.5633,0.562,0.5619,0.5618,0.5611,0.5624,0.5624,0.5644,0.5644,0.5644]},{"header":{"parameterUnit":"m.s-1","parameterCategory":1,"la1":30.2991,"la2":30.254,"lo1":-89.0895,"lo2":-89.0444,"dy":0.0017,"dx":0.0017,"nx":28,"ny":28,"refTime":"2023-09-11T03:00:00:Z","depth":0,"parameterNumber":3,"parameterNumberName":"V-component_of_WINDS"},"data":[0,0,0,0,0,0,0,0,0,0,0,0,0,0,0,0,0,0,0,0,0,0,0,0,0,0,0,0,0,0,0,0,0,0,0,0,0,0,0,0,0,0,0,0,0,0,0,0,0,0,0,0,0,0,0,0,0,0,4.2242,4.2241,0,4.2195,4.2194,4.2194,4.2149,4.2148,4.2148,4.2147,4.2095,4.2094,4.2093,0,0,0,0,0,0,0,0,0,0,0,0,0,4.2289,4.2289,4.2242,4.2241,4.2241,4.2195,4.2194,4.2194,4.2149,4.2148,4.2147,4.2147,4.2095,4.2094,4.2093,0,0,0,0,0,0,0,0,0,0,0,0,0,4.2258,4.2288,4.2242,4.2213,4.221,4.2195,4.2194,4.2194,4.2149,4.2148,4.2147,4.2146,4.2095,4.2094,4.2093,4.2102,0,0,4.2089,4.2088,0,0,0,0,0,0,0,0,4.226,4.2256,4.2218,4.2215,4.2211,4.2177,4.2192,4.2163,4.2149,4.2172,4.2147,4.2146,4.2123,4.2119,4.2112,4.21,4.2097,4.2089,4.2088,4.2088,4.2087,0,0,0,0,0,0,0,4.2262,4.2258,4.2223,4.2217,4.2213,4.2201,4.2196,4.2186,4.2152,4.217,4.2166,4.2162,4.2121,4.2113,4.211,4.2097,4.2089,4.2088,4.2087,4.2087,4.2088,4.2089,0,0,0,0,0,0,4.2269,4.226,4.2225,4.2222,4.2234,4.2201,4.2195,4.2189,4.2152,4.2146,4.2163,4.216,4.2116,4.2112,4.2108,4.2116,4.2088,4.2086,4.2086,4.2088,4.2089,4.209,0,0,0,0,0,0,4.227,4.2266,4.2227,4.224,4.2234,4.2201,4.2194,4.2188,4.2181,4.2147,4.214,4.2161,4.2115,4.211,4.2104,4.2113,4.2086,4.2085,4.2087,4.2088,4.2089,4.2132,0,0,0,0,0,0,4.2272,4.2267,4.2271,4.2241,4.2234,4.2224,4.2195,4.2188,4.2179,4.2175,4.2144,4.2138,4.2114,4.2106,4.2103,4.2111,4.2084,4.2086,4.2087,4.2089,4.2129,4.2134,4.2138,0,0,0,0,0,4.2274,4.2284,4.2272,4.2267,4.2238,4.2225,4.2221,4.2194,4.218,4.2183,4.2161,4.2139,4.2113,4.2106,4.2102,4.211,4.2085,4.2087,4.2089,4.2127,4.2133,4.2138,0,0,0,0,0,0,4.2315,4.228,4.2265,4.2266,4.2249,4.2217,4.222,4.2201,4.2187,4.2183,4.215,4.2143,4.214,4.2124,4.2117,4.2116,4.2096,4.2097,4.2127,4.2132,4.2137,4.214,4.2083,0,0,0,0,0,4.2325,4.2318,4.2287,4.2291,4.2283,4.2254,4.2247,4.2228,4.2208,4.22,4.2178,4.2159,4.2146,4.2138,4.2125,4.2127,4.2119,4.213,4.2135,4.2139,4.214,4.2139,4.2143,4.2096,4.2096,4.2096,0,0,4.2344,4.2324,4.2321,4.2299,4.2283,4.2276,4.2248,4.2241,4.2235,4.2199,4.2192,4.2175,4.2151,4.2149,4.2147,4.2136,4.2152,4.2141,4.2145,4.2143,4.2141,4.2146,4.215,4.2097,4.2097,4.2096,0,0,4.2375,4.2359,4.2361,4.2346,4.2323,4.2304,4.2304,4.2275,4.2263,4.2256,4.2228,4.222,4.22,4.2184,4.2173,4.2198,4.2177,4.2195,4.2218,4.2218,4.2222,4.2225,4.2233,4.2236,4.2196,4.2196,4.2196,0,4.2401,4.239,4.2363,4.2359,4.2349,4.2318,4.2318,4.2305,4.2279,4.2272,4.2261,4.2234,4.2216,4.2209,4.2215,4.2208,4.2206,4.2198,4.2224,4.2226,4.2229,4.2236,4.2239,4.2199,4.2198,4.2198,4.2198,0,4.2423,4.2416,4.2419,4.2396,4.2387,4.2385,4.2357,4.2351,4.2333,4.2314,4.2307,4.2284,4.2265,4.2263,4.2245,4.2253,4.2247,4.223,4.2208,4.2236,4.2242,4.2245,4.2202,4.2201,4.22,4.22,0,0,4.2477,4.244,4.2442,4.2431,4.2404,4.2397,4.2394,4.2377,4.2372,4.2355,4.235,4.2334,4.2318,4.2306,4.2285,4.2285,4.2306,4.2268,4.2267,4.2275,4.2313,4.2325,4.2328,4.2292,4.2292,4.2293,4.2314,0,4.2502,4.2495,4.2471,4.247,4.2463,4.2433,4.243,4.2412,4.2395,4.2385,4.2365,4.2354,4.2335,4.2327,4.2326,4.2304,4.2313,4.2302,4.2285,4.2285,4.2291,4.2332,4.2345,4.2366,4.2317,4.2317,4.2317,0,4.253,4.2517,4.2516,4.249,4.2486,4.2483,4.2466,4.2457,4.2437,4.2424,4.2411,4.2389,4.2382,4.2363,4.2353,4.2346,4.2338,4.2326,4.2326,4.2322,4.2302,4.2328,4.2372,4.2375,4.2321,4.2321,4.232,0,4.2569,4.255,4.2547,4.2539,4.2508,4.2507,4.2494,4.2473,4.2464,4.2448,4.2442,4.2426,4.2416,4.2403,4.2377,4.2366,4.2369,4.2348,4.2356,4.2357,4.2357,4.2357,4.2399,4.2354,4.2354,4.2354,4.2354,0,4.2599,4.2599,4.2564,4.2562,4.2561,4.2534,4.2533,4.2517,4.2498,4.2492,4.2465,4.2459,4.2425,4.2415,4.2394,4.2388,4.2384,4.2372,4.2367,4.2374,4.2375,4.2367,4.2364,4.2355,4.2355,4.2355,4.2354,0,4.2641,4.2618,4.2612,4.2584,4.2577,4.2578,4.2553,4.2549,4.2531,4.2523,4.2519,4.2489,4.2476,4.2449,4.2428,4.2414,4.2411,4.2402,4.2419,4.2415,4.2425,4.2424,4.2462,4.2465,4.242,4.242,4.242,0,4.2661,4.266,4.2633,4.2627,4.2616,4.2607,4.2598,4.2571,4.2563,4.254,4.2538,4.2523,4.251,4.249,4.2465,4.2448,4.2438,4.2452,4.2435,4.2442,4.2436,4.2436,4.2435,4.2456,4.2456,4.2457,4.2457,0,4.2698,4.2687,4.2676,4.2662,4.2653,4.264,4.2625,4.2622,4.2591,4.2583,4.257,4.2559,4.2538,4.2523,4.2503,4.2488,4.2467,4.2463,4.2464,4.2471,4.248,4.2474,4.2428,4.2462,4.2462,4.2461,4.2461,4.2461,4.2729,4.2727,4.2708,4.2696,4.2683,4.267,4.2665,4.2647,4.2636,4.2618,4.2602,4.259,4.2569,4.254,4.2526,4.2516,4.2505,4.2507,4.2507,4.2507,4.251,4.2484,4.2512,4.2512,4.2512,4.2511,4.2511,0,4.2764,4.275,4.2741,4.2722,4.2713,4.2696,4.2679,4.2672,4.2663,4.2645,4.2633,4.2618,4.2603,4.2578,4.2561,4.2557,4.2547,4.2553,4.2552,4.2549,4.2521,4.2521,4.2561,4.2561,4.2561,4.2561,4.2561,4.2561,4.2781,4.2777,4.2764,4.2752,4.2738,4.2727,4.2719,4.2706,4.2693,4.2677,4.2665,4.265,4.2629,4.261,4.2596,4.2589,4.2583,4.2592,4.2582,4.2556,4.2551,4.2546,4.2547,4.2591,4.2591,4.261,4.2611,4.2611]}]]